| time (UTC) | temp F | wind direction | speed knots | gust knots | rain 1hr in | rain 24hr in | rain mn in | humidity % | barometer mb |
| 20260508022701 | 43 | 132 | 0.9 | 0.9 | 0.00 | 0.00 | 0.00 | 86 | 1011.3 |
| 20260508022159 | 44 | 128 | 0.9 | 0.9 | 0.00 | 0.00 | 0.00 | 86 | 1011.5 |
| 20260508021655 | 44 | 126 | 0.9 | 0.9 | 0.00 | 0.00 | 0.00 | 84 | 1011.3 |
| 20260508021150 | 44 | 126 | 0.0 | 0.0 | 0.00 | 0.00 | 0.00 | 83 | 1011.2 |
| 20260508020648 | 45 | 126 | 0.0 | 0.0 | 0.00 | 0.00 | 0.00 | 82 | 1011.5 |
| 20260508020146 | 45 | 126 | 0.0 | 0.0 | 0.00 | 0.00 | 0.00 | 80 | 1011.1 |
| 20260508015643 | 45 | 126 | 0.0 | 0.0 | 0.00 | 0.00 | 0.00 | 80 | 1011.1 |
| 20260508015140 | 45 | 126 | 0.0 | 0.0 | 0.00 | 0.00 | 0.00 | 81 | 1011.0 |
| 20260508014636 | 46 | 126 | 0.0 | 0.0 | 0.00 | 0.00 | 0.00 | 81 | 1010.9 |
| 20260508014132 | 46 | 128 | 0.0 | 0.0 | 0.00 | 0.00 | 0.00 | 80 | 1010.9 |
| 20260508013629 | 46 | 132 | 0.0 | 0.0 | 0.00 | 0.00 | 0.00 | 80 | 1010.9 |
| 20260508013126 | 47 | 130 | 0.9 | 0.9 | 0.00 | 0.00 | 0.00 | 79 | 1010.8 |
| 20260508012623 | 47 | 137 | 0.0 | 0.9 | 0.00 | 0.00 | 0.00 | 76 | 1010.6 |
| 20260508012120 | 48 | 130 | 0.0 | 0.0 | 0.00 | 0.00 | 0.00 | 75 | 1010.6 |
| 20260508011619 | 48 | 131 | 0.0 | 0.0 | 0.00 | 0.00 | 0.00 | 72 | 1010.4 |
| 20260508011115 | 49 | 130 | 0.0 | 0.0 | 0.00 | 0.00 | 0.00 | 70 | 1010.4 |
| 20260508010612 | 49 | 130 | 0.0 | 0.0 | 0.00 | 0.00 | 0.00 | 69 | 1010.3 |
| 20260508010110 | 50 | 130 | 0.0 | 0.0 | 0.00 | 0.00 | 0.00 | 67 | 1010.2 |
| 20260508005606 | 50 | 130 | 0.0 | 0.0 | 0.00 | 0.00 | 0.00 | 66 | 1010.1 |
| 20260508005103 | 51 | 130 | 0.0 | 0.0 | 0.00 | 0.00 | 0.00 | 64 | 1010.2 |
| 20260508004559 | 51 | 130 | 0.0 | 0.0 | 0.00 | 0.00 | 0.00 | 64 | 1010.2 |
| 20260508004056 | 52 | 130 | 0.0 | 0.0 | 0.00 | 0.00 | 0.00 | 63 | 1010.3 |
| 20260508003552 | 52 | 128 | 0.0 | 0.0 | 0.00 | 0.00 | 0.00 | 60 | 1010.0 |
| 20260508003050 | 53 | 127 | 0.0 | 0.0 | 0.00 | 0.00 | 0.00 | 58 | 1009.9 |
| 20260508002546 | 54 | 128 | 0.9 | 0.9 | 0.00 | 0.00 | 0.00 | 55 | 1009.9 |
| 20260508002044 | 55 | 132 | 0.0 | 0.0 | 0.00 | 0.00 | 0.00 | 54 | 1010.0 |
| 20260508001539 | 57 | 132 | 0.0 | 0.0 | 0.00 | 0.00 | 0.00 | 50 | 1009.8 |
| 20260508001035 | 58 | 127 | 0.0 | 0.0 | 0.00 | 0.00 | 0.00 | 45 | 1009.9 |
| 20260508000531 | 59 | 111 | 0.9 | 0.9 | 0.00 | 0.00 | 0.00 | 39 | 1009.5 |
| 20260508000029 | 59 | 85 | 2.6 | 2.6 | 0.00 | 0.00 | 0.00 | 38 | 1009.4 |
| 20260507235525 | 59 | 154 | 0.9 | 0.9 | 0.00 | 0.00 | 0.00 | 38 | 1009.4 |
| 20260507235023 | 59 | 128 | 0.9 | 0.9 | 0.00 | 0.00 | 0.00 | 37 | 1009.4 |
| 20260507234519 | 60 | 116 | 0.9 | 0.9 | 0.00 | 0.00 | 0.00 | 38 | 1009.3 |
| 20260507234016 | 60 | 144 | 1.7 | 1.7 | 0.00 | 0.00 | 0.00 | 38 | 1009.4 |
| 20260507233512 | 61 | 67 | 2.6 | 4.3 | 0.00 | 0.00 | 0.00 | 37 | 1009.2 |
| 20260507233011 | 61 | 120 | 1.7 | 1.7 | 0.00 | 0.00 | 0.00 | 36 | 1009.3 |
| 20260507232507 | 61 | 133 | 1.7 | 2.6 | 0.00 | 0.00 | 0.00 | 36 | 1009.2 |
| 20260507232005 | 61 | 136 | 1.7 | 2.6 | 0.00 | 0.00 | 0.00 | 35 | 1009.0 |
| 20260507231501 | 61 | 7 | 2.6 | 5.2 | 0.00 | 0.00 | 0.00 | 35 | 1008.9 |
| 20260507230958 | 62 | 52 | 2.6 | 4.3 | 0.00 | 0.00 | 0.00 | 36 | 1009.3 |
| 20260507230455 | 62 | 72 | 2.6 | 2.6 | 0.00 | 0.00 | 0.00 | 36 | 1009.1 |
| 20260507225950 | 62 | 330 | 4.3 | 6.1 | 0.00 | 0.00 | 0.00 | 37 | 1009.3 |
| 20260507225446 | 62 | 146 | 1.7 | 1.7 | 0.00 | 0.00 | 0.00 | 36 | 1009.1 |
| 20260507224943 | 62 | 20 | 2.6 | 2.6 | 0.00 | 0.00 | 0.00 | 34 | 1009.0 |
| 20260507224439 | 62 | 331 | 7.0 | 8.7 | 0.00 | 0.00 | 0.00 | 34 | 1009.0 |
| 20260507223936 | 63 | 150 | 2.6 | 2.6 | 0.00 | 0.00 | 0.00 | 37 | 1009.1 |
| 20260507223432 | 63 | 117 | 2.6 | 4.3 | 0.00 | 0.00 | 0.00 | 39 | 1009.0 |
| 20260507222929 | 64 | 331 | 2.6 | 5.2 | 0.00 | 0.00 | 0.00 | 37 | 1009.2 |
| 20260507222426 | 63 | 155 | 2.6 | 2.6 | 0.00 | 0.00 | 0.00 | 38 | 1008.9 |
| 20260507221922 | 63 | 92 | 0.9 | 1.7 | 0.00 | 0.00 | 0.00 | 38 | 1009.0 |
| 20260507221419 | 64 | 131 | 2.6 | 2.6 | 0.00 | 0.00 | 0.00 | 38 | 1009.0 |
| 20260507220915 | 64 | 355 | 5.2 | 6.1 | 0.00 | 0.00 | 0.00 | 38 | 1008.9 |
| 20260507220413 | 64 | 300 | 2.6 | 4.3 | 0.00 | 0.00 | 0.00 | 40 | 1008.8 |
| 20260507215909 | 64 | 315 | 3.5 | 5.2 | 0.00 | 0.00 | 0.00 | 40 | 1008.7 |
| 20260507215406 | 64 | 64 | 3.5 | 4.3 | 0.00 | 0.00 | 0.00 | 39 | 1008.5 |
| 20260507214903 | 64 | 176 | 4.3 | 7.0 | 0.00 | 0.00 | 0.00 | 39 | 1008.7 |
| 20260507214401 | 64 | 108 | 1.7 | 2.6 | 0.00 | 0.00 | 0.00 | 39 | 1008.8 |
| 20260507213856 | 65 | 7 | 4.3 | 5.2 | 0.00 | 0.00 | 0.00 | 39 | 1008.7 |
| 20260507213353 | 64 | 215 | 6.1 | 9.6 | 0.00 | 0.00 | 0.00 | 41 | 1008.7 |
| 20260507212850 | 65 | 64 | 4.3 | 6.1 | 0.00 | 0.00 | 0.00 | 40 | 1008.6 |
| 20260507212346 | 64 | 129 | 0.0 | 0.0 | 0.00 | 0.00 | 0.00 | 42 | 1008.4 |
| 20260507211842 | 66 | 106 | 1.7 | 2.6 | 0.00 | 0.00 | 0.00 | 40 | 1008.4 |
| 20260507211339 | 66 | 140 | 0.9 | 1.7 | 0.00 | 0.00 | 0.00 | 40 | 1008.4 |
| 20260507210836 | 65 | 60 | 1.7 | 2.6 | 0.00 | 0.00 | 0.00 | 40 | 1008.3 |
| 20260507210333 | 65 | 149 | 2.6 | 2.6 | 0.00 | 0.00 | 0.00 | 43 | 1008.4 |
| 20260507205829 | 64 | 108 | 3.5 | 6.1 | 0.00 | 0.00 | 0.00 | 40 | 1008.3 |
| 20260507205327 | 64 | 32 | 2.6 | 2.6 | 0.00 | 0.00 | 0.00 | 41 | 1008.3 |
| 20260507204822 | 65 | 264 | 4.3 | 7.0 | 0.00 | 0.00 | 0.00 | 40 | 1008.3 |
| 20260507204320 | 66 | 153 | 2.6 | 2.6 | 0.00 | 0.00 | 0.00 | 43 | 1008.2 |
| 20260507203818 | 65 | 348 | 5.2 | 7.0 | 0.00 | 0.00 | 0.00 | 42 | 1008.1 |
| 20260507203315 | 66 | 134 | 0.9 | 2.6 | 0.00 | 0.00 | 0.00 | 40 | 1008.1 |
| 20260507202811 | 66 | 124 | 0.0 | 0.9 | 0.00 | 0.00 | 0.00 | 42 | 1008.0 |
| 20260507202308 | 66 | 131 | 0.0 | 0.0 | 0.00 | 0.00 | 0.00 | 44 | 1008.1 |
| 20260507201803 | 64 | 225 | 1.7 | 2.6 | 0.00 | 0.00 | 0.00 | 44 | 1008.2 |
| 20260507201259 | 65 | 139 | 2.6 | 5.2 | 0.00 | 0.00 | 0.00 | 42 | 1008.0 |
| 20260507200756 | 64 | 316 | 0.9 | 1.7 | 0.00 | 0.00 | 0.00 | 43 | 1008.2 |
| 20260507200251 | 63 | 46 | 2.6 | 5.2 | 0.00 | 0.00 | 0.00 | 43 | 1008.1 |
| 20260507195748 | 65 | 2 | 2.6 | 4.3 | 0.00 | 0.00 | 0.00 | 46 | 1008.0 |
| 20260507195245 | 64 | 184 | 2.6 | 2.6 | 0.00 | 0.00 | 0.00 | 46 | 1008.2 |
| 20260507194743 | 63 | 149 | 1.7 | 1.7 | 0.00 | 0.00 | 0.00 | 47 | 1008.3 |
| 20260507194238 | 64 | 3 | 5.2 | 8.7 | 0.00 | 0.00 | 0.00 | 44 | 1008.1 |
| 20260507193735 | 63 | 341 | 3.5 | 4.3 | 0.00 | 0.00 | 0.00 | 47 | 1008.4 |
| 20260507193232 | 62 | 126 | 1.7 | 1.7 | 0.00 | 0.00 | 0.00 | 47 | 1008.4 |
| 20260507192728 | 64 | 172 | 1.7 | 2.6 | 0.00 | 0.00 | 0.00 | 48 | 1008.4 |
| 20260507192225 | 63 | 126 | 0.0 | 0.9 | 0.00 | 0.00 | 0.00 | 45 | 1008.4 |
| 20260507191721 | 62 | 94 | 2.6 | 2.6 | 0.00 | 0.00 | 0.00 | 46 | 1008.5 |
| 20260507191218 | 63 | 351 | 2.6 | 2.6 | 0.00 | 0.00 | 0.00 | 46 | 1008.8 |
| 20260507190715 | 62 | 148 | 2.6 | 4.3 | 0.00 | 0.00 | 0.00 | 46 | 1008.8 |
| 20260507190213 | 63 | 5 | 6.1 | 9.6 | 0.00 | 0.00 | 0.00 | 45 | 1008.7 |
| 20260507185711 | 64 | 182 | 4.3 | 5.2 | 0.00 | 0.00 | 0.00 | 45 | 1009.0 |
| 20260507185208 | 63 | 144 | 1.7 | 1.7 | 0.00 | 0.00 | 0.00 | 52 | 1008.9 |
| 20260507184706 | 62 | 138 | 2.6 | 5.2 | 0.00 | 0.00 | 0.00 | 47 | 1009.0 |
| 20260507184204 | 61 | 119 | 1.7 | 2.6 | 0.00 | 0.00 | 0.00 | 46 | 1008.8 |
| 20260507183700 | 62 | 343 | 4.3 | 4.3 | 0.00 | 0.00 | 0.00 | 46 | 1008.8 |
| 20260507183157 | 64 | 126 | 2.6 | 5.2 | 0.00 | 0.00 | 0.00 | 46 | 1009.0 |
| 20260507182654 | 64 | 357 | 6.1 | 7.8 | 0.00 | 0.00 | 0.00 | 45 | 1009.1 |
| 20260507182149 | 63 | 144 | 0.0 | 0.9 | 0.00 | 0.00 | 0.00 | 45 | 1009.3 |
| 20260507181646 | 63 | 61 | 0.9 | 0.9 | 0.00 | 0.00 | 0.00 | 44 | 1009.0 |
| 20260507181143 | 63 | 110 | 2.6 | 2.6 | 0.00 | 0.00 | 0.00 | 47 | 1009.1 |
| 20260507180639 | 63 | 52 | 4.3 | 5.2 | 0.00 | 0.00 | 0.00 | 49 | 1009.0 |
| 20260507180136 | 62 | 289 | 3.5 | 5.2 | 0.00 | 0.00 | 0.00 | 49 | 1009.0 |
| 20260507175632 | 62 | 134 | 0.0 | 0.9 | 0.00 | 0.00 | 0.00 | 49 | 1009.1 |
| 20260507175129 | 64 | 129 | 2.6 | 4.3 | 0.00 | 0.00 | 0.00 | 49 | 1009.2 |
| 20260507174626 | 64 | 278 | 3.5 | 5.2 | 0.00 | 0.00 | 0.00 | 50 | 1009.0 |
| 20260507174124 | 61 | 103 | 2.6 | 2.6 | 0.00 | 0.00 | 0.00 | 51 | 1009.2 |
| 20260507173621 | 61 | 86 | 2.6 | 4.3 | 0.00 | 0.00 | 0.00 | 52 | 1009.1 |
| 20260507173118 | 62 | 129 | 0.9 | 1.7 | 0.00 | 0.00 | 0.00 | 52 | 1009.5 |
| 20260507172614 | 62 | 125 | 0.9 | 1.7 | 0.00 | 0.00 | 0.00 | 51 | 1009.0 |
| 20260507172112 | 63 | 339 | 4.3 | 5.2 | 0.00 | 0.00 | 0.00 | 53 | 1009.3 |
| 20260507171606 | 62 | 185 | 2.6 | 4.3 | 0.00 | 0.00 | 0.00 | 52 | 1009.5 |
| 20260507171104 | 61 | 74 | 3.5 | 4.3 | 0.00 | 0.00 | 0.00 | 52 | 1009.8 |
| 20260507170601 | 61 | 12 | 4.3 | 6.1 | 0.00 | 0.00 | 0.00 | 52 | 1009.8 |
| 20260507170058 | 61 | 108 | 1.7 | 2.6 | 0.00 | 0.00 | 0.00 | 54 | 1009.5 |
| 20260507165553 | 62 | 138 | 2.6 | 2.6 | 0.00 | 0.00 | 0.00 | 52 | 1009.7 |
| 20260507165049 | 62 | 174 | 3.5 | 4.3 | 0.00 | 0.00 | 0.00 | 51 | 1009.8 |
| 20260507164546 | 63 | 127 | 0.9 | 1.7 | 0.00 | 0.00 | 0.00 | 53 | 1009.5 |
| 20260507164043 | 62 | 83 | 2.6 | 2.6 | 0.00 | 0.00 | 0.00 | 50 | 1009.9 |
| 20260507163540 | 62 | 136 | 3.5 | 5.2 | 0.00 | 0.00 | 0.00 | 53 | 1009.8 |
| 20260507163039 | 62 | 178 | 0.9 | 1.7 | 0.00 | 0.00 | 0.00 | 51 | 1009.9 |
| 20260507162538 | 62 | 135 | 0.0 | 0.0 | 0.00 | 0.00 | 0.00 | 56 | 1009.8 |
| 20260507162036 | 62 | 116 | 2.6 | 2.6 | 0.00 | 0.00 | 0.00 | 51 | 1009.8 |
| 20260507161532 | 60 | 94 | 2.6 | 2.6 | 0.00 | 0.00 | 0.00 | 54 | 1009.9 |
| 20260507161029 | 61 | 288 | 3.5 | 5.2 | 0.00 | 0.00 | 0.00 | 54 | 1010.0 |
| 20260507160525 | 60 | 90 | 0.9 | 1.7 | 0.00 | 0.00 | 0.00 | 56 | 1010.0 |
| 20260507160021 | 59 | 127 | 0.0 | 0.0 | 0.00 | 0.00 | 0.00 | 56 | 1009.9 |
| 20260507155516 | 59 | 134 | 0.0 | 0.9 | 0.00 | 0.00 | 0.00 | 57 | 1010.2 |
| 20260507155014 | 58 | 254 | 3.5 | 4.3 | 0.00 | 0.00 | 0.00 | 56 | 1010.1 |
| 20260507154511 | 60 | 160 | 0.9 | 1.7 | 0.00 | 0.00 | 0.00 | 56 | 1010.2 |
| 20260507154009 | 61 | 79 | 2.6 | 2.6 | 0.00 | 0.00 | 0.00 | 56 | 1009.9 |
| 20260507153505 | 59 | 196 | 2.6 | 2.6 | 0.00 | 0.00 | 0.00 | 59 | 1010.1 |
| 20260507153001 | 59 | 192 | 1.7 | 4.3 | 0.00 | 0.00 | 0.00 | 59 | 1010.1 |
| 20260507152457 | 61 | 256 | 4.3 | 7.0 | 0.00 | 0.00 | 0.00 | 62 | 1010.0 |
| 20260507151953 | 60 | 111 | 0.0 | 0.0 | 0.00 | 0.00 | 0.00 | 56 | 1009.9 |
| 20260507151450 | 59 | 153 | 1.7 | 1.7 | 0.00 | 0.00 | 0.00 | 56 | 1010.2 |
| 20260507150946 | 59 | 225 | 4.3 | 5.2 | 0.00 | 0.00 | 0.00 | 58 | 1009.9 |
| 20260507150443 | 60 | 153 | 2.6 | 2.6 | 0.00 | 0.00 | 0.00 | 56 | 1009.9 |
| 20260507145940 | 60 | 122 | 0.0 | 0.0 | 0.00 | 0.00 | 0.00 | 57 | 1010.1 |
| 20260507145435 | 60 | 85 | 2.6 | 2.6 | 0.00 | 0.00 | 0.00 | 56 | 1010.1 |
| 20260507144933 | 59 | 166 | 2.6 | 2.6 | 0.00 | 0.00 | 0.00 | 58 | 1010.3 |
| 20260507144429 | 59 | 102 | 0.9 | 1.7 | 0.00 | 0.00 | 0.00 | 58 | 1010.3 |
| 20260507143927 | 58 | 136 | 0.9 | 0.9 | 0.00 | 0.00 | 0.00 | 61 | 1010.1 |
| 20260507143424 | 58 | 348 | 3.5 | 4.3 | 0.00 | 0.00 | 0.00 | 59 | 1010.3 |
| 20260507142920 | 59 | 136 | 0.9 | 0.9 | 0.00 | 0.00 | 0.00 | 60 | 1009.9 |
| 20260507142416 | 58 | 114 | 1.7 | 1.7 | 0.00 | 0.00 | 0.00 | 62 | 1010.2 |
| 20260507141914 | 58 | 63 | 2.6 | 2.6 | 0.00 | 0.00 | 0.00 | 61 | 1010.3 |
| 20260507141410 | 58 | 129 | 0.9 | 1.7 | 0.00 | 0.00 | 0.00 | 61 | 1010.5 |
| 20260507140907 | 58 | 113 | 2.6 | 2.6 | 0.00 | 0.00 | 0.00 | 62 | 1010.4 |
| 20260507140403 | 57 | 85 | 1.7 | 1.7 | 0.00 | 0.00 | 0.00 | 63 | 1010.4 |
| 20260507135901 | 57 | 140 | 2.6 | 2.6 | 0.00 | 0.00 | 0.00 | 62 | 1010.4 |
| 20260507135357 | 57 | 96 | 2.6 | 4.3 | 0.00 | 0.00 | 0.00 | 63 | 1010.5 |
| 20260507134855 | 57 | 148 | 1.7 | 1.7 | 0.00 | 0.00 | 0.00 | 68 | 1010.6 |
| 20260507134351 | 57 | 284 | 1.7 | 4.3 | 0.00 | 0.00 | 0.00 | 66 | 1010.5 |
| 20260507133847 | 57 | 98 | 2.6 | 2.6 | 0.00 | 0.00 | 0.00 | 67 | 1010.8 |
| 20260507133342 | 57 | 113 | 0.0 | 0.0 | 0.00 | 0.00 | 0.00 | 75 | 1010.7 |
| 20260507132842 | 57 | 110 | 0.9 | 1.7 | 0.00 | 0.00 | 0.00 | 78 | 1010.7 |
| 20260507132337 | 56 | 112 | 0.9 | 0.9 | 0.00 | 0.00 | 0.00 | 82 | 1010.9 |
| 20260507131835 | 56 | 116 | 0.0 | 0.0 | 0.00 | 0.00 | 0.00 | 82 | 1010.9 |
| 20260507131331 | 55 | 114 | 0.0 | 0.0 | 0.00 | 0.00 | 0.00 | 83 | 1010.9 |
| 20260507130828 | 55 | 125 | 0.0 | 0.0 | 0.00 | 0.00 | 0.00 | 85 | 1010.8 |
| 20260507130325 | 54 | 120 | 0.0 | 0.0 | 0.00 | 0.00 | 0.00 | 88 | 1010.9 |
| 20260507125824 | 53 | 99 | 0.0 | 0.0 | 0.00 | 0.00 | 0.00 | 86 | 1011.0 |
| 20260507125321 | 52 | 120 | 0.9 | 0.9 | 0.00 | 0.00 | 0.00 | 92 | 1010.8 |
| 20260507124819 | 52 | 119 | 0.9 | 0.9 | 0.00 | 0.00 | 0.00 | 92 | 1010.8 |
| 20260507124315 | 52 | 117 | 0.0 | 0.9 | 0.00 | 0.00 | 0.00 | 94 | 1010.9 |
| 20260507123813 | 51 | 139 | 0.9 | 0.9 | 0.00 | 0.00 | 0.00 | 92 | 1010.6 |
| 20260507123310 | 51 | 139 | 0.9 | 0.9 | 0.00 | 0.00 | 0.00 | 94 | 1010.9 |
| 20260507122806 | 51 | 127 | 0.0 | 0.0 | 0.00 | 0.00 | 0.00 | 96 | 1010.9 |
| 20260507122306 | 51 | 122 | 0.0 | 0.0 | 0.00 | 0.00 | 0.00 | 97 | 1010.7 |
| 20260507121758 | 50 | 129 | 0.0 | 0.0 | 0.00 | 0.00 | 0.00 | 97 | 1010.8 |
| 20260507121254 | 51 | 169 | 1.7 | 1.7 | 0.00 | 0.00 | 0.00 | 98 | 1010.7 |
| 20260507120750 | 50 | 117 | 0.0 | 0.9 | 0.00 | 0.00 | 0.00 | 98 | 1010.6 |
| 20260507120247 | 50 | 137 | 0.9 | 0.9 | 0.00 | 0.00 | 0.00 | 99 | 1010.8 |
| 20260507115743 | 50 | 115 | 0.9 | 0.9 | 0.00 | 0.00 | 0.00 | 99 | 1010.6 |
| 20260507115239 | 50 | 116 | 0.0 | 0.0 | 0.00 | 0.00 | 0.00 | 99 | 1010.7 |
| 20260507114735 | 50 | 128 | 0.9 | 0.9 | 0.00 | 0.00 | 0.00 | 99 | 1010.7 |
| 20260507114232 | 50 | 125 | 0.0 | 0.0 | 0.00 | 0.00 | 0.00 | 99 | 1010.5 |
| 20260507113730 | 50 | 132 | 0.0 | 0.0 | 0.00 | 0.00 | 0.00 | 99 | 1011.0 |
| 20260507113227 | 50 | 132 | 0.0 | 0.0 | 0.00 | 0.00 | 0.00 | 99 | 1010.6 |
| 20260507112724 | 50 | 132 | 0.0 | 0.0 | 0.00 | 0.00 | 0.00 | 99 | 1010.9 |
| 20260507112221 | 49 | 132 | 0.0 | 0.0 | 0.00 | 0.00 | 0.00 | 99 | 1010.8 |
| 20260507111718 | 49 | 131 | 0.0 | 0.0 | 0.00 | 0.00 | 0.00 | 99 | 1010.7 |
| 20260507111215 | 49 | 131 | 0.0 | 0.0 | 0.00 | 0.00 | 0.00 | 99 | 1010.6 |
| 20260507110711 | 49 | 131 | 0.0 | 0.0 | 0.00 | 0.00 | 0.00 | 99 | 1010.4 |
| 20260507110208 | 49 | 131 | 0.0 | 0.0 | 0.00 | 0.00 | 0.00 | 99 | 1010.2 |
| 20260507105705 | 49 | 131 | 0.0 | 0.0 | 0.00 | 0.00 | 0.00 | 99 | 1010.0 |
| 20260507105200 | 49 | 131 | 0.0 | 0.0 | 0.00 | 0.00 | 0.00 | 99 | 1010.2 |
| 20260507104658 | 49 | 132 | 0.0 | 0.0 | 0.00 | 0.00 | 0.00 | 99 | 1010.1 |
| 20260507104154 | 49 | 132 | 0.0 | 0.0 | 0.00 | 0.00 | 0.00 | 99 | 1010.1 |
| 20260507103650 | 49 | 132 | 0.0 | 0.0 | 0.00 | 0.00 | 0.00 | 99 | 1010.3 |
| 20260507103147 | 49 | 132 | 0.0 | 0.0 | 0.00 | 0.00 | 0.00 | 99 | 1010.3 |
| 20260507102644 | 49 | 132 | 0.0 | 0.0 | 0.00 | 0.00 | 0.00 | 99 | 1010.0 |
| 20260507102140 | 49 | 131 | 0.0 | 0.0 | 0.00 | 0.00 | 0.00 | 99 | 1010.2 |
| 20260507101636 | 49 | 131 | 0.0 | 0.0 | 0.00 | 0.00 | 0.00 | 99 | 1010.3 |
| 20260507101132 | 49 | 131 | 0.0 | 0.0 | 0.00 | 0.00 | 0.00 | 98 | 1010.1 |
| 20260507100630 | 49 | 131 | 0.0 | 0.0 | 0.00 | 0.00 | 0.00 | 98 | 1010.0 |
| 20260507100128 | 49 | 131 | 0.0 | 0.0 | 0.00 | 0.00 | 0.00 | 98 | 1009.7 |
| 20260507095626 | 49 | 131 | 0.0 | 0.0 | 0.00 | 0.00 | 0.00 | 98 | 1009.9 |
| 20260507095122 | 49 | 131 | 0.0 | 0.0 | 0.00 | 0.00 | 0.00 | 98 | 1009.9 |
| 20260507094618 | 49 | 131 | 0.0 | 0.0 | 0.00 | 0.00 | 0.00 | 98 | 1009.9 |
| 20260507094115 | 49 | 131 | 0.0 | 0.0 | 0.00 | 0.00 | 0.00 | 98 | 1009.9 |
| 20260507093612 | 49 | 131 | 0.0 | 0.0 | 0.00 | 0.00 | 0.00 | 98 | 1009.9 |
| 20260507093111 | 49 | 131 | 0.0 | 0.0 | 0.00 | 0.00 | 0.00 | 98 | 1010.1 |
| 20260507092607 | 49 | 132 | 0.0 | 0.0 | 0.00 | 0.00 | 0.00 | 98 | 1010.1 |
| 20260507092103 | 49 | 131 | 0.0 | 0.0 | 0.00 | 0.00 | 0.00 | 98 | 1010.3 |
| 20260507091601 | 49 | 131 | 0.0 | 0.0 | 0.00 | 0.00 | 0.00 | 98 | 1010.2 |
| 20260507091056 | 49 | 131 | 0.0 | 0.0 | 0.00 | 0.00 | 0.00 | 98 | 1010.2 |
| 20260507090552 | 49 | 130 | 0.0 | 0.0 | 0.00 | 0.00 | 0.00 | 98 | 1010.1 |
| 20260507090049 | 49 | 131 | 0.0 | 0.0 | 0.00 | 0.00 | 0.00 | 98 | 1010.3 |
| 20260507085546 | 49 | 130 | 0.0 | 0.0 | 0.00 | 0.00 | 0.00 | 98 | 1010.0 |
| 20260507085043 | 49 | 130 | 0.0 | 0.0 | 0.00 | 0.00 | 0.00 | 98 | 1009.9 |
| 20260507084540 | 49 | 130 | 0.0 | 0.0 | 0.00 | 0.00 | 0.00 | 98 | 1009.9 |
| 20260507084037 | 49 | 132 | 0.0 | 0.0 | 0.00 | 0.00 | 0.00 | 98 | 1009.8 |
| 20260507083533 | 49 | 131 | 0.0 | 0.0 | 0.00 | 0.00 | 0.00 | 98 | 1009.7 |
| 20260507083030 | 50 | 131 | 0.0 | 0.0 | 0.00 | 0.00 | 0.00 | 98 | 1009.7 |
| 20260507082526 | 50 | 132 | 0.0 | 0.0 | 0.00 | 0.00 | 0.00 | 98 | 1009.8 |
| 20260507082023 | 50 | 131 | 0.0 | 0.0 | 0.00 | 0.00 | 0.00 | 98 | 1009.9 |
| 20260507081519 | 50 | 131 | 0.0 | 0.0 | 0.00 | 0.00 | 0.00 | 98 | 1010.0 |
| 20260507081016 | 50 | 130 | 0.9 | 0.9 | 0.00 | 0.00 | 0.00 | 98 | 1009.9 |
| 20260507080512 | 50 | 132 | 0.9 | 0.9 | 0.00 | 0.00 | 0.00 | 98 | 1009.8 |
| 20260507080008 | 50 | 131 | 0.9 | 0.9 | 0.00 | 0.00 | 0.00 | 97 | 1009.8 |
| 20260507075504 | 50 | 131 | 0.0 | 0.0 | 0.00 | 0.00 | 0.00 | 97 | 1009.9 |
| 20260507075001 | 50 | 131 | 0.0 | 0.0 | 0.00 | 0.00 | 0.00 | 97 | 1010.0 |
| 20260507074457 | 50 | 130 | 0.0 | 0.0 | 0.00 | 0.00 | 0.00 | 97 | 1010.2 |
| 20260507073955 | 50 | 130 | 0.0 | 0.0 | 0.00 | 0.00 | 0.00 | 97 | 1010.3 |
| 20260507073451 | 50 | 129 | 0.0 | 0.0 | 0.00 | 0.00 | 0.00 | 97 | 1010.1 |
| 20260507072948 | 50 | 129 | 0.0 | 0.0 | 0.00 | 0.00 | 0.00 | 97 | 1010.3 |
| 20260507072446 | 50 | 129 | 0.0 | 0.0 | 0.00 | 0.00 | 0.00 | 97 | 1009.9 |
| 20260507071943 | 50 | 130 | 0.0 | 0.0 | 0.00 | 0.00 | 0.00 | 97 | 1009.9 |
| 20260507071440 | 50 | 129 | 0.0 | 0.0 | 0.00 | 0.00 | 0.00 | 96 | 1010.0 |
| 20260507070936 | 50 | 129 | 0.0 | 0.0 | 0.00 | 0.00 | 0.00 | 96 | 1010.0 |
| 20260507070434 | 50 | 130 | 0.0 | 0.0 | 0.00 | 0.00 | 0.00 | 96 | 1010.0 |
| 20260507065930 | 50 | 129 | 0.0 | 0.0 | 0.00 | 0.00 | 0.00 | 96 | 1009.9 |
| 20260507065427 | 50 | 130 | 0.0 | 0.0 | 0.00 | 0.00 | 0.00 | 96 | 1010.1 |
| 20260507064919 | 50 | 129 | 0.0 | 0.0 | 0.00 | 0.00 | 0.00 | 96 | 1010.2 |
| 20260507064417 | 50 | 129 | 0.0 | 0.0 | 0.00 | 0.00 | 0.00 | 96 | 1010.3 |
| 20260507063915 | 50 | 129 | 0.0 | 0.0 | 0.00 | 0.00 | 0.00 | 96 | 1010.2 |
| 20260507063411 | 50 | 127 | 0.0 | 0.0 | 0.00 | 0.00 | 0.00 | 96 | 1010.0 |
| 20260507062908 | 50 | 131 | 0.0 | 0.0 | 0.00 | 0.00 | 0.00 | 96 | 1010.0 |
| 20260507062405 | 51 | 132 | 0.0 | 0.0 | 0.00 | 0.00 | 0.00 | 96 | 1009.9 |
| 20260507061903 | 51 | 131 | 0.0 | 0.0 | 0.00 | 0.00 | 0.00 | 96 | 1010.0 |
| 20260507061401 | 51 | 132 | 0.0 | 0.0 | 0.00 | 0.00 | 0.00 | 96 | 1010.0 |
| 20260507060859 | 51 | 132 | 0.0 | 0.0 | 0.00 | 0.00 | 0.00 | 96 | 1009.9 |
| 20260507060355 | 51 | 132 | 0.0 | 0.0 | 0.00 | 0.00 | 0.00 | 95 | 1010.3 |
| 20260507055852 | 51 | 136 | 0.0 | 0.0 | 0.00 | 0.00 | 0.00 | 95 | 1010.3 |
| 20260507055347 | 51 | 131 | 0.0 | 0.0 | 0.00 | 0.00 | 0.00 | 95 | 1010.2 |
| 20260507054844 | 51 | 131 | 0.0 | 0.0 | 0.00 | 0.00 | 0.00 | 95 | 1010.5 |
| 20260507054340 | 51 | 131 | 0.0 | 0.0 | 0.00 | 0.00 | 0.00 | 95 | 1010.5 |
| 20260507053837 | 51 | 131 | 0.0 | 0.0 | 0.00 | 0.00 | 0.00 | 95 | 1010.2 |
| 20260507053335 | 51 | 131 | 0.0 | 0.0 | 0.00 | 0.00 | 0.00 | 95 | 1010.2 |
| 20260507052834 | 51 | 132 | 0.0 | 0.0 | 0.00 | 0.00 | 0.00 | 95 | 1010.6 |
| 20260507052330 | 51 | 129 | 0.0 | 0.0 | 0.00 | 0.00 | 0.00 | 96 | 1010.7 |
| 20260507051828 | 51 | 133 | 0.0 | 0.0 | 0.00 | 0.00 | 0.00 | 95 | 1010.6 |
| 20260507051325 | 51 | 131 | 0.0 | 0.0 | 0.00 | 0.00 | 0.00 | 95 | 1010.4 |
| 20260507050822 | 51 | 132 | 0.0 | 0.0 | 0.00 | 0.00 | 0.00 | 95 | 1010.5 |
| 20260507050318 | 52 | 131 | 0.0 | 0.0 | 0.00 | 0.00 | 0.00 | 95 | 1010.3 |
| 20260507045816 | 52 | 132 | 0.0 | 0.0 | 0.00 | 0.00 | 0.00 | 95 | 1010.2 |
| 20260507045312 | 52 | 132 | 0.0 | 0.0 | 0.00 | 0.00 | 0.00 | 95 | 1010.4 |
| 20260507044809 | 52 | 130 | 0.0 | 0.0 | 0.00 | 0.00 | 0.00 | 94 | 1010.4 |
| 20260507044306 | 52 | 131 | 0.0 | 0.0 | 0.00 | 0.00 | 0.00 | 94 | 1010.7 |
| 20260507043802 | 52 | 131 | 0.0 | 0.0 | 0.00 | 0.00 | 0.00 | 93 | 1010.6 |
| 20260507043258 | 52 | 126 | 0.9 | 0.9 | 0.00 | 0.00 | 0.00 | 92 | 1010.9 |
| 20260507042754 | 52 | 129 | 0.9 | 0.9 | 0.00 | 0.00 | 0.00 | 94 | 1010.7 |
| 20260507042250 | 52 | 131 | 0.9 | 0.9 | 0.00 | 0.00 | 0.00 | 93 | 1010.6 |
| 20260507041747 | 53 | 128 | 0.0 | 0.0 | 0.00 | 0.00 | 0.00 | 93 | 1010.5 |
| 20260507041244 | 53 | 128 | 0.0 | 0.9 | 0.00 | 0.00 | 0.00 | 92 | 1010.4 |
| 20260507040741 | 53 | 128 | 0.0 | 0.9 | 0.00 | 0.00 | 0.00 | 91 | 1010.4 |
| 20260507040237 | 53 | 129 | 0.0 | 0.0 | 0.00 | 0.00 | 0.00 | 91 | 1010.3 |
| 20260507035733 | 53 | 128 | 0.0 | 0.0 | 0.00 | 0.50 | 0.50 | 90 | 1010.4 |
| 20260507035229 | 53 | 146 | 0.9 | 0.9 | 0.00 | 0.50 | 0.50 | 92 | 1010.1 |
| 20260507034726 | 53 | 128 | 0.0 | 0.0 | 0.00 | 0.50 | 0.50 | 93 | 1010.3 |
| 20260507034223 | 53 | 149 | 1.7 | 1.7 | 0.00 | 0.50 | 0.50 | 92 | 1009.9 |
| 20260507033722 | 53 | 129 | 0.0 | 0.0 | 0.00 | 0.50 | 0.50 | 94 | 1010.0 |
| 20260507033219 | 53 | 121 | 0.9 | 0.9 | 0.00 | 0.50 | 0.50 | 95 | 1009.9 |
| 20260507032716 | 53 | 128 | 0.0 | 0.0 | 0.00 | 0.50 | 0.50 | 96 | 1010.0 |
| 20260507032212 | 53 | 129 | 0.0 | 0.0 | 0.00 | 0.50 | 0.50 | 98 | 1009.8 |
| 20260507031709 | 55 | 128 | 0.0 | 0.0 | 0.00 | 0.50 | 0.50 | 99 | 1010.2 |
| 20260507031205 | 55 | 133 | 0.0 | 0.0 | 0.00 | 0.50 | 0.50 | 99 | 1010.0 |
| 20260507030702 | 55 | 131 | 0.0 | 0.0 | 0.00 | 0.50 | 0.50 | 99 | 1009.8 |
| 20260507030200 | 55 | 131 | 0.0 | 0.0 | 0.00 | 0.50 | 0.50 | 99 | 1009.9 |
| 20260507025657 | 55 | 131 | 0.0 | 0.0 | 0.00 | 0.50 | 0.50 | 98 | 1010.0 |
| 20260507025154 | 55 | 128 | 0.0 | 0.0 | 0.00 | 0.50 | 0.50 | 98 | 1010.1 |
| 20260507024652 | 55 | 135 | 0.0 | 0.0 | 0.00 | 0.50 | 0.50 | 98 | 1010.2 |
| 20260507024149 | 55 | 129 | 0.0 | 0.0 | 0.00 | 0.50 | 0.50 | 98 | 1010.1 |
| 20260507023644 | 55 | 130 | 0.0 | 0.0 | 0.00 | 0.50 | 0.50 | 98 | 1010.2 |
| 20260507023142 | 55 | 129 | 0.0 | 0.0 | 0.00 | 0.50 | 0.50 | 98 | 1010.2 |